{"data":{"norad_id":35493,"epoch":"2026-05-25T03:26:38.623776Z","epoch_age_seconds":62389,"freshness":"FRESH","line1":"1 35493U 09034A   26145.14350259 -.00000203  00000+0  00000+0 0  9991","line2":"2 35493   0.0129 289.0163 0000662   4.9810 274.2471  1.00272240 46413","mean_motion":1.0027224,"eccentricity":6.62e-5,"inclination_deg":0.0129,"raan_deg":289.0163,"arg_perigee_deg":4.981,"mean_anomaly_deg":274.2471,"bstar":0,"rev_number":4641,"period_min":1436.090387529,"perigee_km":35783.676111844,"apogee_km":35789.258705468,"semimajor_km":42164.604408656,"source":"CELESTRAK","updated_at":"2026-05-25T13:38:14.328060Z"}}